Regional Weather Roundup
Issued by NWS Cleveland, OH

Home | Current Version | Previous Version | Graphics & Text | Print | Product List | Glossary On
Versions: 1 2 3 4 5 6 7 8 9 10 11 12 13 14 15 16 17 18 19 20 21 22 23 24 25 26 27 28 29 30 31 32 33 34 35 36 37 38 39 40 41 42 43 44 45 46 47 48 49 50
000
ASUS41 KCLE 180210
RWRCLE
OHIO REGIONAL WEATHER ROUNDUP
NATIONAL WEATHER SERVICE WILMINGTON, OH
1000 PM EDT THU APR 17 2014

NOTE: "FAIR" INDICATES FEW OR NO CLOUDS BELOW 12,000 FEET WITH NO
SIGNIFICANT WEATHER AND/OR OBSTRUCTIONS TO VISIBILITY.

OHZ001>008-015>018-024>027-034-035-043-044-180300-
   NORTHWEST OHIO

CITY           SKY/WX    TMP DP  RH WIND       PRES   REMARKS
DEFIANCE       PTCLDY    55  34  45 S7        30.27R
FINDLAY        MOCLDY    54  38  54 SW5       30.28R
TOLEDO EXPRESS MOCLDY    59  33  37 SW6       30.26R
TOLEDO METCALF MOCLDY    53  36  52 S9        30.27R
LIMA           NOT AVBL
$$

OHZ009>014-019>023-028>033-038-089-180300-
   NORTHEAST OHIO

CITY           SKY/WX    TMP DP  RH WIND       PRES   REMARKS
CLE-HOPKINS    MOCLDY    58  31  35 SE6       30.32R
CLE-LAKEFRONT  PTCLDY    60  31  33 S6        30.29R
CUY CO. ARPT   MOCLDY    55  30  38 S7        30.31R
LORAIN-ELYRIA  PTCLDY    56  34  43 S6        30.30R
ASHTABULA      CLEAR     54  28  36 SE10      30.33R
AKRON-CANTON   PTCLDY    58  34  40 CALM      30.32R
WOOSTER        PTCLDY    45  36  70 CALM      30.32R
MANSFIELD      PTCLDY    50  32  50 S3        30.31R
YOUNGSTOWN     PTCLDY    54  27  35 SE12G20   30.33R
$$

OHZ042-051>053-060>062-070>072-077>081-180300-
  SOUTHWEST OHIO

CITY           SKY/WX    TMP DP  RH WIND       PRES   REMARKS
CINC-COVINGTON CLEAR     55  35  47 CALM      30.29R
CINC-LUNKEN    CLEAR     51  40  65 CALM      30.30S
HAMILTON       CLEAR     52  39  61 CALM      30.30S
DAYTON         PTCLDY    58  32  37 S5        30.29S
WRIGHT-PAT AFB PTCLDY    55  35  46 NW2       30.29S
DAYTON GENERAL PTCLDY    57  33  40 CALM      30.28S
WILMINGTON     CLEAR     54  33  45 CALM      30.29F
$$

OHZ036-037-039>041-045>050-054>059-063>069-073>076-082>088-180300-
  CENTRAL AND SOUTHEAST OHIO

CITY           SKY/WX    TMP DP  RH WIND       PRES   REMARKS
COLUMBUS       PTCLDY    59  31  34 SW3       30.32R
OSU AIRPORT    CLEAR     58  31  35 SW3       30.31R
BOLTON FIELD   PTCLDY    53  35  49 SW3       30.32R
RICKENBACK AFB CLEAR     55  31  38 CALM      30.31R
NEWARK         CLEAR     48  37  65 CALM      30.32R
MARION         PTCLDY    48  36  63 SW7       30.31R
LANCASTER      CLEAR     46  38  73 CALM      30.32R
ZANESVILLE     CLEAR     54  25  32 S3        30.33R
NEW PHILLY     PTCLDY    50  32  50 SE3       30.32R
$$



USA.gov is the U.S. government's official web portal to all federal, state and local government web resources and services.